Track NAVSTAR 34 (USA 94) now! NAVSTAR 34 (USA 94) is classified as:
1 22779U 93054A 25186.17392265 .00000062 00000-0 00000-0 0 9993 2 22779 53.4015 230.3590 0052089 248.0672 112.2031 1.89129936229463